Location: Claflin County Park
(44.8478°N, 87.5507°W)
Time: 03:14:10
(UTC+00:00)

USA 234 - Pass Details

Date: 10 December 2025
Orbit: 1102 x 1106 km, 123.0° (Epoch: 04 January)

Event Time Altitude Azimuth Distance (km) Brightness Sun altitude
Rises 10:29:00 0° 61° (ENE) 3,930 7.0 -28.8°
Reaches altitude 10° 10:31:45 10° 52° (NE) 2,971 6.1 -28.4°
Maximum altitude 10:37:22 32° 353° (N) 1,810 4.2 -27.4°
Enters shadow 10:37:58 31° 343° (NNW) 1,827 4.2 -27.3°
